Simultaneous Nadir Overpasses (SNOs) Predictions

Prediction of SNOs between GOES-16 and NOAA-19 Satellite Orbit:

Table of predicted SNOs for the next 14.0 days since TLE Epoch: 2/13/2021
Index Date Time (GOES-16) GOES-16 Lat,Lon NOAA-19 Lat,Lon Distance(km) Time Diff (sec)
1 02/13/2021 11:28:34 -0.01, -75.14 -0.26, -74.19 109.33 80
2 02/14/2021 11:16:51 -0.01, -75.14 -0.90, -71.32 436.59 80
3 02/15/2021 23:49:37 0.01, -75.13 -0.94, -79.16 460.40 80
4 02/16/2021 23:37:55 0.01, -75.14 -0.24, -76.30 132.73 80
5 02/17/2021 23:28:51 0.01, -75.15 0.40, -73.44 195.08 80
6 02/20/2021 11:49:37 -0.01, -75.20 0.69, -78.35 358.94 80
7 02/21/2021 11:37:54 -0.02, -75.21 0.04, -75.48 30.94 80
8 02/22/2021 11:23:30 -0.02, -75.23 -0.60, -72.62 297.09 80
9 02/24/2021 23:47:15 0.02, -75.23 -0.50, -77.61 271.07 80
10 02/25/2021 23:32:52 0.03, -75.25 0.14, -74.74 57.35 80
11 02/26/2021 23:21:08 0.03, -75.26 0.79, -71.88 385.92 80
